COSMOS 1275 DEB

Satellite information

Favourite Embed

Satellite Type and Status

DEBRISIN ORBIT

Key statistics

Satellite COSMOS 1275 DEB at a glance.

Uptime

16224

Days in orbit

Revolutions

≈ 13.8

Per day

Orbit

LEO

Low Earth Orbit

Inclination

82.8

Latest

Satellite identification and parameters

Extended collection of information and parameters for COSMOS 1275 DEB.

Object identification

Identified? True

Debris? True

Object name: COSMOS 1275 DEB

International designator: 1981-053MZ

Object number (NORAD): 39939

Object ID (CCSDS): 39939

Country: COMMONWEALTH OF INDEPENDENT STATES (CIS)

Current information (Y/N): Y

RCS size: SMALL

Orbital parameters

Period: 104.472 minutes

Inclination: 82.8164 deg

SMA: 7347.863 km

Apoapsis: 1023.222 km

Periapsis: 916.235 km

RAAN: 264.7703 deg

Eccentricy: 0.00728014

Argument of periapsis: 72.4618 deg

Mean anomaly: 288.4478 deg

Mean motion: 13.7835519 rev/day

Mean motion (dot): 0.00000856 rev/day2

B* drag term: 0.00081643688 1/REarth

Two-line elements (TLE)

Creation date: Nov. 1, 2025, 7:40 p.m.

Reference frame: TEME

Reference center: EARTH

Epoch: Nov. 1, 2025, 2:53 p.m. UTC

TLE line 0: 0 COSMOS 1275 DEB

TLE line 1: 1 39939U 81053MZ 25305.62037799 .00000856 00000-0 81644-3 0 9993

TLE line 2: 2 39939 82.8164 264.7703 0072801 72.4618 288.4478 13.78355190573399

Live tracking on map

Real-time ground track for satellite COSMOS 1275 DEB.

In-orbit conjunctions

A list of the most updated potential collisions computed for object COSMOS 1275 DEB.

Target Orbit TCA Probability of collision Miss distance Type
CZ-6A DEB SSO 2024-12-23 19:56:53 0.0003319385 50.0 (m) DEBRIS
COSMOS 1299 LEO 2024-06-29 04:44:29 0.0001522109 553.0 (m) PAYLOAD

Associated space launch

Navigation satellite providing location information for the Tsiklon-B navigation system

COSMOS 1275 DEB was lifted into orbit during the mission ‘Kosmos-3M | Parus 27’, on board a Kosmos-3M space rocket.

The launch took place on June 4, 1981, 3:41 p.m. from 132/2.

For more information about the launch, click the button.

Launch to space Kosmos-3M | Parus 27
Kosmos-3M | Parus 27

Agency: N/A

Status: Launch Successful

Launch date: June 4, 1981, 3:41 p.m. UTC

Rocket: Kosmos-3M

Launch pad: 132/2

Location: Plesetsk Cosmodrome, Russian Federation

...

Latest news about this satellite

There are no fresh news available about this satellite. Check back as we update our databases every day.


Newsletter sign-up

Weekly statistics, charts and insights to help you stay on top of the space industry.